| time (UTC) | temp F | wind direction | speed MPH | gust MPH | rain 1hr in | rain 24hr in | rain mn in | humidity % | barometer mb |
| 20260507085054 | 55 | 269 | 3.0 | 6.0 | 0.00 | 0.00 | 0.00 | 75 | 1021.9 |
| 20260507084555 | 55 | 309 | 0.0 | 2.0 | 0.00 | 0.00 | 0.00 | 75 | 1021.9 |
| 20260507084057 | 55 | 0 | 0.0 | 4.0 | 0.00 | 0.00 | 0.00 | 75 | 1021.8 |
| 20260507083554 | 55 | 0 | 0.0 | 4.0 | 0.00 | 0.00 | 0.00 | 75 | 1021.9 |
| 20260507083056 | 55 | 290 | 1.0 | 5.0 | 0.00 | 0.00 | 0.00 | 75 | 1021.9 |
| 20260507082553 | 55 | 302 | 1.0 | 6.0 | 0.00 | 0.00 | 0.00 | 75 | 1022.0 |
| 20260507082056 | 55 | 297 | 1.0 | 6.0 | 0.00 | 0.00 | 0.00 | 75 | 1021.9 |
| 20260507081602 | 55 | 305 | 1.0 | 6.0 | 0.00 | 0.00 | 0.00 | 75 | 1022.0 |
| 20260507081053 | 55 | 312 | 1.0 | 5.0 | 0.00 | 0.00 | 0.00 | 76 | 1021.9 |
| 20260507080554 | 55 | 307 | 2.0 | 7.0 | 0.00 | 0.00 | 0.00 | 76 | 1021.9 |
| 20260507080052 | 55 | 0 | 2.0 | 7.0 | 0.00 | 0.00 | 0.00 | 76 | 1021.9 |
| 20260507075553 | 55 | 337 | 1.0 | 5.0 | 0.00 | 0.00 | 0.00 | 76 | 1021.9 |
| 20260507075053 | 55 | 0 | 1.0 | 5.0 | 0.00 | 0.00 | 0.00 | 77 | 1021.9 |
| 20260507074605 | 55 | 319 | 1.0 | 7.0 | 0.00 | 0.00 | 0.00 | 77 | 1021.9 |
| 20260507074054 | 55 | 281 | 1.0 | 7.0 | 0.00 | 0.00 | 0.00 | 77 | 1022.0 |
| 20260507073554 | 55 | 247 | 1.0 | 5.0 | 0.00 | 0.00 | 0.00 | 77 | 1021.9 |
| 20260507073055 | 55 | 285 | 1.0 | 5.0 | 0.00 | 0.00 | 0.00 | 77 | 1021.9 |
| 20260507072553 | 55 | 0 | 0.0 | 3.0 | 0.00 | 0.00 | 0.00 | 78 | 1021.9 |
| 20260507072054 | 55 | 0 | 0.0 | 4.0 | 0.00 | 0.00 | 0.00 | 78 | 1021.8 |
| 20260507071556 | 55 | 252 | 0.0 | 4.0 | 0.00 | 0.00 | 0.00 | 77 | 1021.7 |
| 20260507071053 | 55 | 0 | 0.0 | 4.0 | 0.00 | 0.00 | 0.00 | 78 | 1021.7 |
| 20260507070554 | 55 | 242 | 1.0 | 4.0 | 0.00 | 0.00 | 0.00 | 77 | 1021.6 |
| 20260507070054 | 55 | 245 | 0.0 | 5.0 | 0.00 | 0.00 | 0.00 | 77 | 1021.7 |
| 20260507065554 | 55 | 0 | 1.0 | 5.0 | 0.00 | 0.00 | 0.00 | 77 | 1021.6 |
| 20260507065053 | 55 | 296 | 2.0 | 5.0 | 0.00 | 0.00 | 0.00 | 77 | 1021.7 |
| 20260507064555 | 55 | 165 | 2.0 | 5.0 | 0.00 | 0.00 | 0.00 | 77 | 1021.7 |
| 20260507064052 | 55 | 299 | 1.0 | 5.0 | 0.00 | 0.00 | 0.00 | 77 | 1021.7 |
| 20260507063553 | 55 | 311 | 2.0 | 5.0 | 0.00 | 0.00 | 0.00 | 77 | 1021.7 |
| 20260507063058 | 55 | 285 | 1.0 | 4.0 | 0.00 | 0.00 | 0.00 | 77 | 1021.7 |
| 20260507062551 | 55 | 274 | 0.0 | 4.0 | 0.00 | 0.00 | 0.00 | 77 | 1021.8 |
| 20260507062054 | 55 | 302 | 2.0 | 5.0 | 0.00 | 0.00 | 0.00 | 77 | 1021.8 |
| 20260507061555 | 55 | 213 | 0.0 | 5.0 | 0.00 | 0.00 | 0.00 | 77 | 1021.7 |
| 20260507061054 | 55 | 317 | 1.0 | 8.0 | 0.00 | 0.00 | 0.00 | 78 | 1021.8 |
| 20260507060554 | 55 | 311 | 2.0 | 8.0 | 0.00 | 0.00 | 0.00 | 78 | 1021.9 |
| 20260507060057 | 56 | 305 | 1.0 | 5.0 | 0.00 | 0.00 | 0.00 | 78 | 1021.7 |
| 20260507055551 | 56 | 288 | 2.0 | 5.0 | 0.00 | 0.00 | 0.00 | 78 | 1021.7 |
| 20260507055053 | 56 | 303 | 1.0 | 4.0 | 0.00 | 0.00 | 0.00 | 78 | 1021.8 |
| 20260507054633 | 56 | 305 | 2.0 | 4.0 | 0.00 | 0.00 | 0.00 | 78 | 1021.7 |
| 20260507054054 | 56 | 290 | 1.0 | 4.0 | 0.00 | 0.00 | 0.00 | 78 | 1021.8 |
| 20260507053554 | 56 | 328 | 1.0 | 5.0 | 0.00 | 0.00 | 0.00 | 78 | 1021.7 |
| 20260507053055 | 56 | 295 | 0.0 | 6.0 | 0.00 | 0.00 | 0.00 | 78 | 1021.7 |
| 20260507052552 | 56 | 0 | 1.0 | 6.0 | 0.00 | 0.00 | 0.00 | 78 | 1021.7 |
| 20260507052051 | 56 | 302 | 1.0 | 6.0 | 0.00 | 0.00 | 0.00 | 77 | 1021.7 |
| 20260507051553 | 56 | 300 | 2.0 | 8.0 | 0.00 | 0.00 | 0.00 | 77 | 1021.6 |
| 20260507051054 | 56 | 292 | 1.0 | 8.0 | 0.00 | 0.00 | 0.00 | 77 | 1021.7 |
| 20260507050553 | 56 | 316 | 2.0 | 6.0 | 0.00 | 0.00 | 0.00 | 77 | 1021.6 |
| 20260507050058 | 57 | 221 | 2.0 | 5.0 | 0.00 | 0.00 | 0.00 | 77 | 1021.7 |
| 20260507045555 | 57 | 304 | 2.0 | 5.0 | 0.00 | 0.00 | 0.00 | 77 | 1021.6 |
| 20260507045054 | 57 | 323 | 1.0 | 8.0 | 0.00 | 0.00 | 0.00 | 76 | 1021.7 |
| 20260507044601 | 57 | 87 | 1.0 | 8.0 | 0.00 | 0.00 | 0.00 | 76 | 1021.8 |
| 20260507044051 | 57 | 311 | 2.0 | 7.0 | 0.00 | 0.00 | 0.00 | 76 | 1021.7 |
| 20260507043553 | 57 | 102 | 1.0 | 7.0 | 0.00 | 0.00 | 0.00 | 76 | 1021.7 |
| 20260507043055 | 57 | 316 | 3.0 | 7.0 | 0.00 | 0.00 | 0.00 | 76 | 1021.6 |
| 20260507042554 | 57 | 328 | 2.0 | 7.0 | 0.00 | 0.00 | 0.00 | 76 | 1021.6 |
| 20260507042053 | 57 | 314 | 1.0 | 7.0 | 0.00 | 0.00 | 0.00 | 76 | 1021.5 |
| 20260507041602 | 58 | 304 | 3.0 | 7.0 | 0.00 | 0.00 | 0.00 | 75 | 1021.5 |
| 20260507041055 | 58 | 354 | 1.0 | 7.0 | 0.00 | 0.00 | 0.00 | 75 | 1021.5 |
| 20260507040555 | 58 | 240 | 2.0 | 7.0 | 0.00 | 0.00 | 0.00 | 75 | 1021.5 |
| 20260507040054 | 58 | 242 | 1.0 | 6.0 | 0.00 | 0.00 | 0.00 | 75 | 1021.3 |
| 20260507035553 | 58 | 295 | 1.0 | 7.0 | 0.00 | 0.00 | 0.00 | 75 | 1021.3 |
| 20260507035055 | 58 | 308 | 1.0 | 10.0 | 0.00 | 0.00 | 0.00 | 75 | 1021.3 |
| 20260507034600 | 59 | 291 | 4.0 | 10.0 | 0.00 | 0.00 | 0.00 | 74 | 1021.1 |
| 20260507034054 | 59 | 311 | 1.0 | 6.0 | 0.00 | 0.00 | 0.00 | 74 | 1021.1 |
| 20260507033553 | 59 | 286 | 1.0 | 8.0 | 0.00 | 0.00 | 0.00 | 74 | 1021.0 |
| 20260507033101 | 59 | 309 | 2.0 | 8.0 | 0.00 | 0.00 | 0.00 | 74 | 1021.0 |
| 20260507032554 | 59 | 295 | 3.0 | 7.0 | 0.00 | 0.00 | 0.00 | 74 | 1020.9 |
| 20260507032053 | 60 | 297 | 4.0 | 7.0 | 0.00 | 0.00 | 0.00 | 74 | 1020.9 |
| 20260507031605 | 60 | 90 | 2.0 | 7.0 | 0.00 | 0.00 | 0.00 | 73 | 1020.8 |
| 20260507031053 | 60 | 168 | 1.0 | 7.0 | 0.00 | 0.00 | 0.00 | 74 | 1020.7 |
| 20260507030553 | 60 | 152 | 2.0 | 6.0 | 0.00 | 0.00 | 0.00 | 74 | 1020.7 |
| 20260507030059 | 60 | 288 | 1.0 | 7.0 | 0.00 | 0.00 | 0.00 | 74 | 1020.5 |
| 20260507025556 | 61 | 278 | 1.0 | 7.0 | 0.00 | 0.00 | 0.00 | 73 | 1020.6 |
| 20260507025053 | 61 | 236 | 3.0 | 6.0 | 0.00 | 0.00 | 0.00 | 73 | 1020.5 |
| 20260507024555 | 61 | 97 | 3.0 | 6.0 | 0.00 | 0.00 | 0.00 | 73 | 1020.4 |
| 20260507024053 | 61 | 290 | 2.0 | 6.0 | 0.00 | 0.00 | 0.00 | 72 | 1020.3 |
| 20260507023552 | 62 | 102 | 2.0 | 7.0 | 0.00 | 0.00 | 0.00 | 72 | 1020.4 |
| 20260507023104 | 62 | 290 | 1.0 | 7.0 | 0.00 | 0.00 | 0.00 | 72 | 1020.3 |
| 20260507022552 | 62 | 92 | 2.0 | 6.0 | 0.00 | 0.00 | 0.00 | 72 | 1020.4 |
| 20260507022054 | 62 | 314 | 1.0 | 5.0 | 0.00 | 0.00 | 0.00 | 72 | 1020.4 |
| 20260507021555 | 62 | 307 | 1.0 | 7.0 | 0.00 | 0.00 | 0.00 | 72 | 1020.3 |
| 20260507021057 | 62 | 244 | 2.0 | 7.0 | 0.00 | 0.00 | 0.00 | 72 | 1020.3 |
| 20260507020553 | 62 | 285 | 2.0 | 7.0 | 0.00 | 0.00 | 0.00 | 72 | 1020.4 |
| 20260507020056 | 62 | 288 | 2.0 | 8.0 | 0.00 | 0.00 | 0.00 | 72 | 1020.3 |
| 20260507015553 | 62 | 298 | 4.0 | 8.0 | 0.00 | 0.00 | 0.00 | 71 | 1020.4 |
| 20260507015053 | 63 | 299 | 3.0 | 7.0 | 0.00 | 0.00 | 0.00 | 70 | 1020.4 |
| 20260507014604 | 64 | 0 | 2.0 | 7.0 | 0.00 | 0.00 | 0.00 | 70 | 1020.5 |
| 20260507014053 | 64 | 316 | 2.0 | 7.0 | 0.00 | 0.00 | 0.00 | 70 | 1020.5 |
| 20260507013552 | 64 | 256 | 3.0 | 7.0 | 0.00 | 0.00 | 0.00 | 69 | 1020.4 |
| 20260507013056 | 64 | 104 | 1.0 | 6.0 | 0.00 | 0.00 | 0.00 | 70 | 1020.5 |
| 20260507012555 | 64 | 266 | 2.0 | 7.0 | 0.00 | 0.00 | 0.00 | 69 | 1020.5 |
| 20260507012056 | 64 | 308 | 1.0 | 7.0 | 0.00 | 0.00 | 0.00 | 69 | 1020.5 |
| 20260507011555 | 65 | 327 | 2.0 | 13.0 | 0.00 | 0.00 | 0.00 | 69 | 1020.4 |
| 20260507011057 | 65 | 280 | 4.0 | 13.0 | 0.00 | 0.00 | 0.00 | 68 | 1020.5 |
| 20260507010551 | 65 | 97 | 2.0 | 8.0 | 0.00 | 0.00 | 0.00 | 68 | 1020.3 |
| 20260507010059 | 66 | 250 | 3.0 | 8.0 | 0.00 | 0.00 | 0.00 | 67 | 1020.4 |
| 20260507005553 | 66 | 23 | 1.0 | 8.0 | 0.00 | 0.00 | 0.00 | 66 | 1020.4 |
| 20260507005052 | 67 | 297 | 2.0 | 8.0 | 0.00 | 0.00 | 0.00 | 66 | 1020.4 |
| 20260507004553 | 67 | 340 | 2.0 | 7.0 | 0.00 | 0.00 | 0.00 | 65 | 1020.4 |
| 20260507004053 | 67 | 293 | 2.0 | 7.0 | 0.00 | 0.00 | 0.00 | 66 | 1020.3 |
| 20260507003551 | 67 | 203 | 1.0 | 10.0 | 0.00 | 0.00 | 0.00 | 67 | 1020.3 |
| 20260507003054 | 67 | 334 | 2.0 | 10.0 | 0.00 | 0.00 | 0.00 | 67 | 1020.2 |
| 20260507002551 | 67 | 335 | 3.0 | 7.0 | 0.00 | 0.00 | 0.00 | 67 | 1020.2 |
| 20260507002051 | 67 | 321 | 2.0 | 6.0 | 0.00 | 0.00 | 0.00 | 67 | 1020.2 |
| 20260507001605 | 68 | 266 | 2.0 | 6.0 | 0.00 | 0.00 | 0.00 | 66 | 1020.2 |
| 20260507001053 | 68 | 307 | 1.0 | 5.0 | 0.00 | 0.00 | 0.00 | 67 | 1020.1 |
| 20260507000552 | 68 | 288 | 1.0 | 7.0 | 0.00 | 0.00 | 0.00 | 67 | 1020.2 |
| 20260507000057 | 68 | 230 | 1.0 | 7.0 | 0.00 | 0.00 | 0.00 | 68 | 1020.1 |
| 20260506235555 | 69 | 310 | 1.0 | 8.0 | 0.00 | 0.00 | 0.00 | 66 | 1020.1 |
| 20260506235055 | 69 | 300 | 1.0 | 8.0 | 0.00 | 0.00 | 0.00 | 67 | 1020.1 |
| 20260506234557 | 69 | 243 | 2.0 | 8.0 | 0.00 | 0.00 | 0.00 | 66 | 1020.1 |
| 20260506234053 | 69 | 312 | 2.0 | 4.0 | 0.00 | 0.00 | 0.00 | 65 | 1020.0 |
| 20260506233552 | 69 | 127 | 0.0 | 2.0 | 0.00 | 0.00 | 0.00 | 65 | 1019.9 |
| 20260506233119 | 69 | 38 | 1.0 | 5.0 | 0.00 | 0.00 | 0.00 | 65 | 1020.1 |
| 20260506232551 | 70 | 275 | 2.0 | 5.0 | 0.00 | 0.00 | 0.00 | 64 | 1020.0 |
| 20260506232053 | 70 | 239 | 0.0 | 2.0 | 0.00 | 0.00 | 0.00 | 64 | 1020.1 |
| 20260506231555 | 70 | 0 | 0.0 | 5.0 | 0.00 | 0.00 | 0.00 | 64 | 1020.2 |
| 20260506231051 | 70 | 314 | 1.0 | 5.0 | 0.00 | 0.00 | 0.00 | 63 | 1020.2 |
| 20260506230550 | 70 | 298 | 0.0 | 2.0 | 0.00 | 0.00 | 0.00 | 64 | 1020.2 |
| 20260506230057 | 70 | 341 | 0.0 | 2.0 | 0.00 | 0.00 | 0.00 | 64 | 1020.2 |
| 20260506225553 | 69 | 51 | 0.0 | 2.0 | 0.00 | 0.00 | 0.00 | 65 | 1020.3 |
| 20260506225051 | 70 | 86 | 0.0 | 2.0 | 0.00 | 0.00 | 0.00 | 64 | 1020.4 |
| 20260506224556 | 69 | 74 | 0.0 | 2.0 | 0.00 | 0.00 | 0.00 | 65 | 1020.3 |
| 20260506224054 | 69 | 0 | 0.0 | 3.0 | 0.00 | 0.00 | 0.00 | 66 | 1020.4 |
| 20260506223557 | 69 | 112 | 0.0 | 3.0 | 0.00 | 0.00 | 0.00 | 66 | 1020.5 |
| 20260506223055 | 68 | 83 | 1.0 | 3.0 | 0.00 | 0.00 | 0.00 | 67 | 1020.5 |
| 20260506222551 | 68 | 76 | 0.0 | 2.0 | 0.00 | 0.00 | 0.00 | 68 | 1020.5 |
| 20260506222054 | 67 | 108 | 0.0 | 1.0 | 0.00 | 0.00 | 0.00 | 69 | 1020.6 |
| 20260506221559 | 67 | 89 | 0.0 | 3.0 | 0.00 | 0.00 | 0.00 | 69 | 1020.6 |
| 20260506221050 | 67 | 0 | 1.0 | 3.0 | 0.00 | 0.00 | 0.00 | 68 | 1020.6 |
| 20260506220551 | 68 | 68 | 1.0 | 4.0 | 0.00 | 0.00 | 0.00 | 66 | 1020.6 |
| 20260506220055 | 68 | 205 | 0.0 | 4.0 | 0.00 | 0.00 | 0.00 | 67 | 1020.6 |
| 20260506215551 | 68 | 212 | 0.0 | 6.0 | 0.00 | 0.00 | 0.00 | 67 | 1020.7 |
| 20260506215051 | 68 | 63 | 1.0 | 6.0 | 0.00 | 0.00 | 0.00 | 68 | 1020.6 |
| 20260506214554 | 68 | 68 | 1.0 | 5.0 | 0.00 | 0.00 | 0.00 | 69 | 1020.5 |
| 20260506214050 | 68 | 72 | 2.0 | 5.0 | 0.00 | 0.00 | 0.00 | 67 | 1020.5 |
| 20260506213552 | 68 | 172 | 2.0 | 5.0 | 0.00 | 0.00 | 0.00 | 68 | 1020.5 |
| 20260506213112 | 68 | 220 | 1.0 | 3.0 | 0.00 | 0.00 | 0.00 | 68 | 1020.5 |
| 20260506212551 | 68 | 311 | 1.0 | 2.0 | 0.00 | 0.00 | 0.00 | 68 | 1020.7 |
| 20260506212053 | 67 | 63 | 1.0 | 2.0 | 0.00 | 0.00 | 0.00 | 70 | 1020.6 |
| 20260506211554 | 67 | 1 | 0.0 | 3.0 | 0.00 | 0.00 | 0.00 | 69 | 1020.8 |
| 20260506211054 | 67 | 234 | 0.0 | 3.0 | 0.00 | 0.00 | 0.00 | 70 | 1020.9 |
| 20260506210554 | 67 | 82 | 0.0 | 2.0 | 0.00 | 0.00 | 0.00 | 69 | 1020.9 |
| 20260506210057 | 67 | 203 | 0.0 | 2.0 | 0.00 | 0.00 | 0.00 | 69 | 1021.1 |
| 20260506205554 | 66 | 306 | 1.0 | 2.0 | 0.00 | 0.00 | 0.00 | 69 | 1021.0 |
| 20260506205051 | 66 | 120 | 0.0 | 4.0 | 0.00 | 0.00 | 0.00 | 70 | 1020.9 |
| 20260506204555 | 66 | 0 | 0.0 | 4.0 | 0.00 | 0.00 | 0.00 | 71 | 1021.0 |
| 20260506204054 | 66 | 103 | 2.0 | 4.0 | 0.00 | 0.00 | 0.00 | 69 | 1021.0 |
| 20260506203557 | 66 | 0 | 0.0 | 4.0 | 0.00 | 0.00 | 0.00 | 70 | 1020.9 |
| 20260506203055 | 66 | 46 | 1.0 | 4.0 | 0.00 | 0.00 | 0.00 | 69 | 1020.9 |
| 20260506202553 | 66 | 186 | 1.0 | 3.0 | 0.00 | 0.00 | 0.00 | 71 | 1020.9 |
| 20260506202052 | 67 | 202 | 1.0 | 3.0 | 0.00 | 0.00 | 0.00 | 70 | 1020.8 |
| 20260506201554 | 67 | 91 | 0.0 | 2.0 | 0.00 | 0.00 | 0.00 | 69 | 1020.9 |
| 20260506201053 | 66 | 0 | 0.0 | 3.0 | 0.00 | 0.00 | 0.00 | 72 | 1021.0 |
| 20260506200550 | 65 | 260 | 1.0 | 3.0 | 0.00 | 0.00 | 0.00 | 73 | 1021.0 |
| 20260506200054 | 64 | 118 | 0.0 | 2.0 | 0.00 | 0.00 | 0.00 | 75 | 1021.1 |
| 20260506195551 | 63 | 289 | 0.0 | 2.0 | 0.00 | 0.00 | 0.00 | 76 | 1021.1 |
| 20260506195055 | 62 | 275 | 0.0 | 5.0 | 0.00 | 0.00 | 0.00 | 75 | 1021.1 |
| 20260506194634 | 62 | 86 | 1.0 | 5.0 | 0.00 | 0.00 | 0.00 | 75 | 1021.4 |
| 20260506194054 | 63 | 315 | 1.0 | 5.0 | 0.00 | 0.00 | 0.00 | 75 | 1021.4 |
| 20260506193550 | 63 | 10 | 1.0 | 4.0 | 0.00 | 0.00 | 0.00 | 75 | 1021.4 |
| 20260506193103 | 63 | 91 | 0.0 | 2.0 | 0.00 | 0.00 | 0.00 | 74 | 1021.4 |
| 20260506192609 | 63 | 311 | 1.0 | 2.0 | 0.00 | 0.00 | 0.00 | 74 | 1021.4 |
| 20260506192053 | 64 | 314 | 0.0 | 2.0 | 0.00 | 0.00 | 0.00 | 74 | 1021.4 |
| 20260506191555 | 63 | 214 | 2.0 | 2.0 | 0.00 | 0.00 | 0.00 | 75 | 1021.2 |
| 20260506191054 | 63 | 187 | 0.0 | 2.0 | 0.00 | 0.00 | 0.00 | 77 | 1021.3 |
| 20260506190554 | 62 | 94 | 1.0 | 2.0 | 0.00 | 0.00 | 0.00 | 75 | 1021.3 |
| 20260506190057 | 63 | 214 | 0.0 | 3.0 | 0.00 | 0.00 | 0.00 | 76 | 1021.3 |
| 20260506185551 | 63 | 77 | 0.0 | 3.0 | 0.00 | 0.00 | 0.00 | 76 | 1021.3 |
| 20260506185051 | 62 | 198 | 1.0 | 3.0 | 0.00 | 0.00 | 0.00 | 76 | 1021.2 |
| 20260506184555 | 62 | 178 | 1.0 | 3.0 | 0.00 | 0.00 | 0.00 | 77 | 1021.2 |
| 20260506184051 | 62 | 193 | 1.0 | 3.0 | 0.00 | 0.00 | 0.00 | 77 | 1021.3 |
| 20260506183552 | 62 | 0 | 0.0 | 1.0 | 0.00 | 0.00 | 0.00 | 77 | 1021.2 |
| 20260506183054 | 61 | 210 | 0.0 | 3.0 | 0.00 | 0.00 | 0.00 | 78 | 1021.1 |
| 20260506182551 | 61 | 0 | 1.0 | 3.0 | 0.00 | 0.00 | 0.00 | 78 | 1021.2 |
| 20260506182050 | 61 | 263 | 0.0 | 2.0 | 0.00 | 0.00 | 0.00 | 78 | 1021.3 |
| 20260506181554 | 61 | 309 | 0.0 | 2.0 | 0.00 | 0.00 | 0.00 | 79 | 1021.3 |
| 20260506181051 | 60 | 323 | 0.0 | 1.0 | 0.00 | 0.00 | 0.00 | 79 | 1021.3 |
| 20260506180554 | 60 | 50 | 0.0 | 3.0 | 0.00 | 0.00 | 0.00 | 80 | 1021.3 |
| 20260506180104 | 60 | 287 | 0.0 | 3.0 | 0.00 | 0.00 | 0.00 | 79 | 1021.1 |
| 20260506175553 | 59 | 0 | 0.0 | 3.0 | 0.00 | 0.00 | 0.00 | 80 | 1021.1 |
| 20260506175056 | 60 | 85 | 0.0 | 1.0 | 0.00 | 0.00 | 0.00 | 79 | 1021.4 |
| 20260506174556 | 60 | 86 | 0.0 | 1.0 | 0.00 | 0.00 | 0.00 | 79 | 1021.3 |
| 20260506174053 | 60 | 0 | 0.0 | 1.0 | 0.00 | 0.00 | 0.00 | 79 | 1021.2 |
| 20260506173553 | 60 | 92 | 0.0 | 1.0 | 0.00 | 0.00 | 0.00 | 80 | 1021.3 |
| 20260506173058 | 59 | 0 | 0.0 | 2.0 | 0.00 | 0.00 | 0.00 | 80 | 1021.1 |
| 20260506172557 | 59 | 0 | 0.0 | 2.0 | 0.00 | 0.00 | 0.00 | 79 | 1021.0 |
| 20260506172052 | 59 | 220 | 0.0 | 1.0 | 0.00 | 0.00 | 0.00 | 79 | 1020.9 |
| 20260506171558 | 59 | 251 | 0.0 | 1.0 | 0.00 | 0.00 | 0.00 | 79 | 1021.0 |
| 20260506171054 | 59 | 304 | 0.0 | 1.0 | 0.00 | 0.00 | 0.00 | 79 | 1021.1 |
| 20260506170552 | 59 | 0 | 0.0 | 1.0 | 0.00 | 0.00 | 0.00 | 79 | 1020.8 |
| 20260506170106 | 59 | 0 | 0.0 | 2.0 | 0.00 | 0.00 | 0.00 | 79 | 1020.9 |
| 20260506165551 | 59 | 0 | 0.0 | 2.0 | 0.00 | 0.00 | 0.00 | 80 | 1021.1 |
| 20260506165051 | 59 | 0 | 0.0 | 2.0 | 0.00 | 0.00 | 0.00 | 79 | 1021.1 |
| 20260506164602 | 59 | 308 | 0.0 | 1.0 | 0.00 | 0.00 | 0.00 | 80 | 1021.0 |
| 20260506164053 | 59 | 0 | 0.0 | 2.0 | 0.00 | 0.00 | 0.00 | 80 | 1021.0 |
| 20260506163550 | 59 | 170 | 0.0 | 4.0 | 0.00 | 0.00 | 0.00 | 80 | 1021.0 |
| 20260506163114 | 59 | 288 | 0.0 | 4.0 | 0.00 | 0.00 | 0.00 | 80 | 1021.0 |
| 20260506162550 | 59 | 297 | 1.0 | 4.0 | 0.00 | 0.00 | 0.00 | 79 | 1021.1 |
| 20260506162053 | 59 | 0 | 0.0 | 1.0 | 0.00 | 0.00 | 0.00 | 80 | 1020.8 |
| 20260506161602 | 58 | 226 | 0.0 | 1.0 | 0.00 | 0.00 | 0.00 | 81 | 1020.9 |
| 20260506161053 | 58 | 0 | 0.0 | 0.0 | 0.00 | 0.00 | 0.00 | 82 | 1020.8 |
| 20260506160550 | 58 | 0 | 0.0 | 1.0 | 0.00 | 0.00 | 0.00 | 82 | 1020.8 |
| 20260506160056 | 58 | 0 | 0.0 | 1.0 | 0.00 | 0.00 | 0.00 | 83 | 1020.8 |
| 20260506155556 | 57 | 0 | 0.0 | 3.0 | 0.00 | 0.00 | 0.00 | 82 | 1020.6 |
| 20260506155056 | 57 | 0 | 0.0 | 4.0 | 0.00 | 0.00 | 0.00 | 83 | 1020.4 |
| 20260506154610 | 57 | 88 | 0.0 | 4.0 | 0.00 | 0.00 | 0.00 | 83 | 1020.4 |
| 20260506154053 | 57 | 100 | 1.0 | 4.0 | 0.00 | 0.00 | 0.00 | 83 | 1020.3 |
| 20260506153553 | 57 | 0 | 0.0 | 1.0 | 0.00 | 0.00 | 0.00 | 84 | 1020.3 |
| 20260506153102 | 56 | 0 | 0.0 | 4.0 | 0.00 | 0.00 | 0.00 | 84 | 1020.5 |
| 20260506152551 | 56 | 141 | 0.0 | 4.0 | 0.00 | 0.00 | 0.00 | 84 | 1020.9 |
| 20260506152053 | 56 | 95 | 1.0 | 3.0 | 0.00 | 0.00 | 0.00 | 84 | 1021.0 |
| 20260506151559 | 56 | 307 | 0.0 | 3.0 | 0.00 | 0.00 | 0.00 | 84 | 1021.1 |
| 20260506151050 | 56 | 0 | 1.0 | 3.0 | 0.00 | 0.00 | 0.00 | 84 | 1021.1 |
| 20260506150551 | 56 | 311 | 0.0 | 3.0 | 0.00 | 0.00 | 0.00 | 84 | 1021.1 |
| 20260506150100 | 56 | 0 | 0.0 | 4.0 | 0.00 | 0.00 | 0.00 | 84 | 1021.0 |
| 20260506145551 | 56 | 307 | 1.0 | 4.0 | 0.00 | 0.00 | 0.00 | 84 | 1021.0 |
| 20260506145053 | 56 | 302 | 1.0 | 3.0 | 0.00 | 0.00 | 0.00 | 84 | 1020.9 |
| 20260506144556 | 56 | 300 | 0.0 | 3.0 | 0.00 | 0.00 | 0.00 | 84 | 1020.7 |
| 20260506144053 | 57 | 0 | 0.0 | 3.0 | 0.00 | 0.00 | 0.00 | 84 | 1020.8 |
| 20260506143550 | 57 | 300 | 2.0 | 3.0 | 0.00 | 0.00 | 0.00 | 84 | 1020.8 |
| 20260506143105 | 57 | 0 | 1.0 | 3.0 | 0.00 | 0.00 | 0.00 | 84 | 1020.6 |
| 20260506142554 | 57 | 286 | 1.0 | 3.0 | 0.00 | 0.00 | 0.00 | 84 | 1020.5 |
| 20260506142052 | 57 | 290 | 0.0 | 2.0 | 0.00 | 0.00 | 0.00 | 84 | 1020.3 |
| 20260506141552 | 57 | 261 | 0.0 | 2.0 | 0.00 | 0.00 | 0.00 | 84 | 1020.2 |
| 20260506141055 | 57 | 107 | 0.0 | 2.0 | 0.00 | 0.00 | 0.00 | 84 | 1020.2 |
| 20260506140552 | 57 | 0 | 0.0 | 1.0 | 0.00 | 0.00 | 0.00 | 84 | 1020.2 |
| 20260506140057 | 57 | 0 | 0.0 | 1.0 | 0.00 | 0.00 | 0.00 | 84 | 1020.1 |
| 20260506135552 | 57 | 0 | 0.0 | 1.0 | 0.00 | 0.00 | 0.00 | 85 | 1020.2 |
| 20260506135050 | 57 | 0 | 0.0 | 1.0 | 0.00 | 0.00 | 0.00 | 85 | 1020.2 |
| 20260506134556 | 56 | 0 | 0.0 | 1.0 | 0.00 | 0.00 | 0.00 | 85 | 1020.2 |
| 20260506134052 | 56 | 0 | 0.0 | 1.0 | 0.00 | 0.00 | 0.00 | 85 | 1020.1 |
| 20260506133552 | 56 | 0 | 0.0 | 1.0 | 0.00 | 0.00 | 0.00 | 85 | 1020.1 |
| 20260506133055 | 56 | 290 | 0.0 | 1.0 | 0.00 | 0.00 | 0.00 | 85 | 1020.1 |
| 20260506132550 | 56 | 0 | 0.0 | 0.0 | 0.00 | 0.00 | 0.00 | 85 | 1020.0 |
| 20260506132054 | 56 | 0 | 0.0 | 0.0 | 0.00 | 0.00 | 0.00 | 85 | 1020.0 |
| 20260506131604 | 56 | 0 | 0.0 | 0.0 | 0.00 | 0.00 | 0.00 | 85 | 1019.9 |
| 20260506131050 | 56 | 0 | 0.0 | 0.0 | 0.00 | 0.00 | 0.00 | 85 | 1019.8 |
| 20260506130552 | 56 | 0 | 0.0 | 0.0 | 0.00 | 0.00 | 0.00 | 85 | 1019.8 |
| 20260506130054 | 56 | 0 | 0.0 | 0.0 | 0.00 | 0.00 | 0.00 | 85 | 1019.7 |
| 20260506125552 | 56 | 0 | 0.0 | 0.0 | 0.00 | 0.00 | 0.00 | 85 | 1019.7 |
| 20260506125054 | 56 | 0 | 0.0 | 0.0 | 0.00 | 0.00 | 0.00 | 85 | 1019.7 |
| 20260506124555 | 56 | 0 | 0.0 | 0.0 | 0.00 | 0.00 | 0.00 | 85 | 1019.6 |
| 20260506124052 | 56 | 0 | 0.0 | 0.0 | 0.00 | 0.00 | 0.00 | 85 | 1019.6 |
| 20260506123553 | 56 | 0 | 0.0 | 2.0 | 0.00 | 0.00 | 0.00 | 85 | 1019.6 |
| 20260506123054 | 56 | 0 | 0.0 | 2.0 | 0.00 | 0.00 | 0.00 | 84 | 1019.6 |
| 20260506122553 | 56 | 0 | 0.0 | 3.0 | 0.00 | 0.00 | 0.00 | 85 | 1019.6 |
| 20260506122053 | 56 | 0 | 0.0 | 5.0 | 0.00 | 0.00 | 0.00 | 84 | 1019.6 |
| 20260506121555 | 56 | 295 | 0.0 | 5.0 | 0.00 | 0.00 | 0.00 | 84 | 1019.6 |
| 20260506121052 | 57 | 295 | 1.0 | 5.0 | 0.00 | 0.00 | 0.00 | 84 | 1019.7 |
| 20260506120553 | 57 | 297 | 0.0 | 4.0 | 0.00 | 0.00 | 0.00 | 84 | 1019.6 |
| 20260506120059 | 57 | 0 | 0.0 | 4.0 | 0.00 | 0.00 | 0.00 | 84 | 1019.6 |
| 20260506115551 | 57 | 298 | 1.0 | 4.0 | 0.00 | 0.00 | 0.00 | 84 | 1019.6 |
| 20260506115051 | 57 | 0 | 0.0 | 2.0 | 0.00 | 0.00 | 0.00 | 84 | 1019.5 |
| 20260506114604 | 57 | 251 | 0.0 | 3.0 | 0.00 | 0.00 | 0.00 | 84 | 1019.5 |
| 20260506114054 | 57 | 304 | 0.0 | 3.0 | 0.00 | 0.00 | 0.00 | 84 | 1019.3 |
| 20260506113550 | 57 | 0 | 0.0 | 3.0 | 0.00 | 0.00 | 0.00 | 84 | 1019.3 |
| 20260506113054 | 57 | 0 | 1.0 | 4.0 | 0.00 | 0.00 | 0.00 | 84 | 1019.3 |
| 20260506112551 | 57 | 0 | 0.0 | 4.0 | 0.00 | 0.00 | 0.00 | 83 | 1019.3 |
| 20260506112054 | 57 | 300 | 1.0 | 4.0 | 0.00 | 0.00 | 0.00 | 83 | 1019.3 |
| 20260506111557 | 57 | 316 | 0.0 | 3.0 | 0.00 | 0.00 | 0.00 | 83 | 1019.2 |
| 20260506111053 | 57 | 297 | 0.0 | 4.0 | 0.00 | 0.00 | 0.00 | 83 | 1019.2 |
| 20260506110553 | 57 | 311 | 1.0 | 4.0 | 0.00 | 0.00 | 0.00 | 83 | 1019.1 |
| 20260506110103 | 57 | 268 | 0.0 | 4.0 | 0.00 | 0.00 | 0.00 | 83 | 1019.0 |
| 20260506105556 | 57 | 300 | 1.0 | 4.0 | 0.00 | 0.00 | 0.00 | 82 | 1018.9 |
| 20260506105052 | 57 | 0 | 0.0 | 2.0 | 0.00 | 0.00 | 0.00 | 82 | 1019.0 |
| 20260506104555 | 57 | 300 | 0.0 | 2.0 | 0.00 | 0.00 | 0.00 | 82 | 1018.8 |
| 20260506104049 | 57 | 294 | 0.0 | 2.0 | 0.00 | 0.00 | 0.00 | 82 | 1018.8 |
| 20260506103553 | 57 | 279 | 0.0 | 3.0 | 0.00 | 0.00 | 0.00 | 82 | 1018.7 |
| 20260506103055 | 57 | 304 | 0.0 | 3.0 | 0.00 | 0.00 | 0.00 | 82 | 1018.7 |
| 20260506102550 | 57 | 291 | 1.0 | 3.0 | 0.00 | 0.00 | 0.00 | 82 | 1018.7 |
| 20260506102051 | 57 | 0 | 0.0 | 3.0 | 0.00 | 0.00 | 0.00 | 82 | 1018.6 |
| 20260506101604 | 57 | 275 | 0.0 | 3.0 | 0.00 | 0.00 | 0.00 | 82 | 1018.4 |
| 20260506101053 | 57 | 298 | 1.0 | 3.0 | 0.00 | 0.00 | 0.00 | 82 | 1018.4 |
| 20260506100551 | 57 | 0 | 0.0 | 2.0 | 0.00 | 0.00 | 0.00 | 82 | 1018.5 |
| 20260506100054 | 57 | 302 | 0.0 | 2.0 | 0.00 | 0.00 | 0.00 | 82 | 1018.3 |
| 20260506095554 | 57 | 0 | 0.0 | 2.0 | 0.00 | 0.00 | 0.00 | 82 | 1018.4 |
| 20260506095050 | 57 | 303 | 0.0 | 2.0 | 0.00 | 0.00 | 0.00 | 82 | 1018.4 |
| 20260506094616 | 57 | 345 | 0.0 | 3.0 | 0.00 | 0.00 | 0.00 | 82 | 1018.3 |
| 20260506094049 | 57 | 317 | 0.0 | 3.0 | 0.00 | 0.00 | 0.00 | 81 | 1018.3 |
| 20260506093550 | 57 | 307 | 1.0 | 3.0 | 0.00 | 0.00 | 0.00 | 81 | 1018.3 |
| 20260506093056 | 57 | 0 | 0.0 | 3.0 | 0.00 | 0.00 | 0.00 | 81 | 1018.1 |
| 20260506092550 | 58 | 295 | 1.0 | 3.0 | 0.00 | 0.00 | 0.00 | 81 | 1018.3 |
| 20260506092050 | 58 | 302 | 0.0 | 3.0 | 0.00 | 0.00 | 0.00 | 81 | 1018.2 |
| 20260506091555 | 58 | 300 | 1.0 | 3.0 | 0.00 | 0.00 | 0.00 | 81 | 1018.2 |
| 20260506091052 | 58 | 311 | 0.0 | 2.0 | 0.00 | 0.00 | 0.00 | 81 | 1018.3 |
| 20260506090549 | 58 | 0 | 0.0 | 3.0 | 0.00 | 0.00 | 0.00 | 81 | 1018.2 |
| 20260506090054 | 58 | 302 | 1.0 | 3.0 | 0.00 | 0.00 | 0.00 | 81 | 1018.2 |
| 20260506085551 | 58 | 310 | 0.0 | 2.0 | 0.00 | 0.00 | 0.00 | 81 | 1018.1 |